sat.trackr.live / text

‹ back to catalog

UNKNOWN

NORAD 81015

UNKNOWN UNKNOWN UNKNOWN

§ Identity

Operator
Country
Launch date
Launch site
Launch vehicle
Mass (kg)
RCS (m²)

External: N2YO · Heavens-Above

§ Orbital elements

Epoch: 2026-09-19T06:40:41.356416Z

Period
102.23 min
Inclination
99.3610°
Eccentricity
0.0134515
Mean motion
14.08550245 rev/d
Perigee alt
766.9 km
Apogee alt
961.8 km
Semi-major
7,242.5 km
B*
8.9784e-4
RAAN
287.5654°
Arg perigee
93.6373°
Mean anomaly
333.9725°
Rev number
2,215

§ Raw data

UNKNOWN1 81015U          26262.27825644  .00001630  00000+0  89784-3 0  99992 81015  99.3610 287.5654 0134515  93.6373 333.9725 14.08550245 22158

JSON: /api/v1/satellites/81015 · /tle

For live sub-satellite position, see the globe view (requires WebGL).

§ Visibility from observer

Set your observer location to see the next 7 days of passes ≥ 10°. The values pass through the URL so the page stays shareable.

No JS? Fill the form by hand. The geolocation button needs JavaScript.